Walterboro, SC

1:02 PM EST on December 16, 2017 (GMT -0500)
Lowcountry Regional

Weather History for KRBW - November, 2012

Change the Weather History Date:

Friday, November 23, 2012

  Actual Average Record
Temperature  
Mean Temperature 50 °F -  
Max Temperature 69 °F 67 °F 77 °F (2010)
Min Temperature 30 °F 41 °F 30 °F (2012)
Degree Days  
Heating Degree Days 16    
Moisture  
Dew Point 37 °F    
Average Humidity 66    
Maximum Humidity 100    
Minimum Humidity 30    
Precipitation  
Precipitation 0.00 in - - ()
Sea Level Pressure  
Sea Level Pressure 30.08 in    
Wind  
Wind Speed 3 mph (WSW)    
Max Wind Speed 13 mph    
Max Gust Speed 16 mph    
Visibility 10 miles    
Events      
Averages and records for this station are not official NWS values.
T = Trace of Precipitation, MM = Missing Value Source: NWS Daily Summary

Daily Weather History Graph

Daily Weather History Graph

Search for Another Location

Airport or City:

Trip Planner

Search our weather history database for the weather conditions in past years. The results will help you decide how hot, cold, wet, or windy it might be!

Date:

Astronomy

Nov. 23, 2012 Rise Set
Actual Time 7:00 AM EST 5:17 PM EST
Civil Twilight 6:34 AM EST 5:43 PM EST
Nautical Twilight 6:03 AM EST 6:14 PM EST
Astronomical Twilight 5:34 AM EST 6:43 PM EST
Moon 2:20 PM EST (11/23) 2:30 AM EST (11/23)
Length of Visible Light 11h 09m
Length of Day
10h 16m
Waxing Gibbous, 79% of the Moon is Illuminated
Nov 23
Waxing Gibbous
Nov 28
Full
Dec 6
Last Quarter
Dec 13
New
Dec 20
First Quarter

Hourly Weather History & Observations

Time (EST) Temp. Windchill Dew Point Humidity Pressure Visibility Wind Dir Wind Speed Gust Speed Precip Events Conditions
12:15 AM 33.8 °F - 32.0 °F 93% 30.19 in 10.0 mi Calm Calm - N/A   Clear
12:35 AM 33.8 °F - 33.8 °F 100% 30.18 in 10.0 mi Calm Calm - N/A   Clear
12:55 AM 32.0 °F - 32.0 °F 100% 30.18 in 10.0 mi Calm Calm - N/A   Clear
1:15 AM 33.8 °F - 33.8 °F 100% 30.17 in 10.0 mi Calm Calm - N/A   Clear
1:35 AM 32.0 °F - 32.0 °F 100% 30.17 in 10.0 mi Calm Calm - N/A   Clear
1:55 AM 32.0 °F 28.7 °F 32.0 °F 100% 30.17 in 10.0 mi WNW 3.5 mph - N/A   Clear
2:15 AM 32.0 °F - 32.0 °F 100% 30.17 in 10.0 mi Calm Calm - N/A   Clear
2:55 AM 32.0 °F - 32.0 °F 100% 30.17 in 10.0 mi Calm Calm - N/A   Clear
3:15 AM 32.0 °F 28.7 °F 32.0 °F 100% 30.17 in 10.0 mi WNW 3.5 mph - N/A   Clear
3:35 AM 32.0 °F 28.7 °F 32.0 °F 100% 30.17 in 10.0 mi NW 3.5 mph - N/A   Clear
3:55 AM 32.0 °F 28.7 °F 32.0 °F 100% 30.17 in 10.0 mi WNW 3.5 mph - N/A   Clear
4:15 AM 30.2 °F 26.7 °F 30.2 °F 100% 30.17 in 10.0 mi WNW 3.5 mph - N/A   Clear
4:35 AM 32.0 °F - 32.0 °F 100% 30.17 in 10.0 mi Calm Calm - N/A   Clear
4:55 AM 32.0 °F - 32.0 °F 100% 30.17 in 10.0 mi Calm Calm - N/A   Clear
5:15 AM 32.0 °F 28.7 °F 30.2 °F 93% 30.18 in 10.0 mi NW 3.5 mph - N/A   Clear
5:55 AM 30.2 °F - 30.2 °F 100% 30.18 in 10.0 mi Calm Calm - N/A   Clear
6:15 AM 32.0 °F - 32.0 °F 100% 30.18 in 10.0 mi Calm Calm - N/A   Clear
6:35 AM 32.0 °F - 30.2 °F 93% 30.18 in 10.0 mi Calm Calm - N/A   Clear
6:55 AM 30.2 °F - 30.2 °F 100% 30.18 in 10.0 mi Calm Calm - N/A   Clear
7:15 AM 30.2 °F - 30.2 °F 100% 30.19 in 10.0 mi Calm Calm - N/A   Clear
7:55 AM 33.8 °F - 33.8 °F 100% 30.19 in 10.0 mi Calm Calm - N/A   Clear
8:15 AM 37.4 °F - 35.6 °F 93% 30.19 in 10.0 mi Calm Calm - N/A   Clear
8:35 AM 41.0 °F - 35.6 °F 81% 30.19 in 10.0 mi Calm Calm - N/A   Clear
8:55 AM 46.4 °F - 35.6 °F 66% 30.19 in 10.0 mi Calm Calm - N/A   Clear
9:15 AM 50.0 °F - 35.6 °F 58% 30.19 in 10.0 mi Calm Calm - N/A   Clear
9:55 AM 55.4 °F - 32.0 °F 41% 30.18 in 10.0 mi WSW 3.5 mph - N/A   Clear
10:15 AM 57.2 °F - 33.8 °F 41% 30.18 in 10.0 mi Calm Calm - N/A   Clear
10:35 AM 59.0 °F - 32.0 °F 36% 30.17 in 5.0 mi SW 4.6 mph - N/A   Haze
10:55 AM 60.8 °F - 32.0 °F 34% 30.16 in 10.0 mi West 8.1 mph - N/A   Clear
11:15 AM 62.6 °F - 32.0 °F 32% 30.15 in 10.0 mi SW 8.1 mph - N/A   Clear
11:55 AM 64.4 °F - 33.8 °F 32% 30.12 in 10.0 mi West 5.8 mph - N/A   Clear
12:15 PM 66.2 °F - 35.6 °F 32% 30.11 in 10.0 mi WSW 9.2 mph - N/A   Clear
12:35 PM 68.0 °F - 35.6 °F 30% 30.10 in 10.0 mi WSW 5.8 mph - N/A   Clear
12:55 PM 68.0 °F - 37.4 °F 33% 30.08 in 10.0 mi SW 8.1 mph - N/A   Clear
1:15 PM 69.8 °F - 37.4 °F 31% 30.07 in 10.0 mi West 9.2 mph - N/A   Clear
1:35 PM 69.8 °F - 37.4 °F 31% 30.06 in 10.0 mi West 8.1 mph - N/A   Clear
1:55 PM 69.8 °F - 39.2 °F 33% 30.05 in 10.0 mi WSW 12.7 mph - N/A   Clear
2:15 PM 69.8 °F - 39.2 °F 33% 30.04 in 10.0 mi West 10.4 mph - N/A   Clear
2:35 PM 69.8 °F - 39.2 °F 33% 30.03 in 10.0 mi West 10.4 mph - N/A   Clear
2:55 PM 69.8 °F - 39.2 °F 33% 30.02 in 10.0 mi WSW 8.1 mph 16.1 mph N/A   Clear
3:15 PM 69.8 °F - 39.2 °F 33% 30.01 in 10.0 mi WSW 9.2 mph - N/A   Clear
3:35 PM 69.8 °F - 41.0 °F 35% 30.01 in 10.0 mi SW 5.8 mph - N/A   Clear
3:55 PM 69.8 °F - 41.0 °F 35% 30.01 in 10.0 mi WSW 9.2 mph - N/A   Clear
4:15 PM 69.8 °F - 39.2 °F 33% 30.00 in 10.0 mi WSW 9.2 mph - N/A   Clear
4:35 PM 68.0 °F - 41.0 °F 37% 29.99 in 10.0 mi SW 5.8 mph - N/A   Clear
4:55 PM 64.4 °F - 42.8 °F 45% 29.99 in 10.0 mi SW 5.8 mph - N/A   Clear
5:15 PM 62.6 °F - 42.8 °F 48% 29.99 in 10.0 mi SW 4.6 mph - N/A   Clear
5:35 PM 60.8 °F - 42.8 °F 52% 30.00 in 10.0 mi SW 3.5 mph - N/A   Clear
5:55 PM 55.4 °F - 42.8 °F 63% 30.01 in 10.0 mi WSW 3.5 mph - N/A   Clear
6:15 PM 53.6 °F - 44.6 °F 72% 30.00 in 10.0 mi SW 3.5 mph - N/A   Clear
6:35 PM 53.6 °F - 44.6 °F 72% 30.00 in 10.0 mi SW 3.5 mph - N/A   Clear
6:55 PM 53.6 °F - 44.6 °F 72% 30.00 in 10.0 mi SW 3.5 mph - N/A   Clear
7:15 PM 55.4 °F - 42.8 °F 63% 30.01 in 10.0 mi WSW 4.6 mph - N/A   Clear
7:35 PM 55.4 °F - 42.8 °F 63% 30.00 in 10.0 mi SW 4.6 mph - N/A   Clear
7:55 PM 55.4 °F - 42.8 °F 63% 30.00 in 10.0 mi SW 5.8 mph - N/A   Clear
8:15 PM 55.4 °F - 42.8 °F 63% 29.99 in 10.0 mi WSW 4.6 mph - N/A   Clear
8:35 PM 55.4 °F - 42.8 °F 63% 29.99 in 10.0 mi SW 4.6 mph - N/A   Clear
8:55 PM 55.4 °F - 42.8 °F 63% 29.99 in 10.0 mi WSW 4.6 mph - N/A   Clear
9:15 PM 55.4 °F - 42.8 °F 63% 29.98 in 10.0 mi SW 3.5 mph - N/A   Clear
9:35 PM 53.6 °F - 42.8 °F 67% 29.98 in 10.0 mi SW 3.5 mph - N/A   Clear
9:55 PM 55.4 °F - 42.8 °F 63% 29.98 in 10.0 mi SW 4.6 mph - N/A   Clear
10:15 PM 53.6 °F - 42.8 °F 67% 29.97 in 10.0 mi WSW 4.6 mph - N/A   Clear
10:35 PM 53.6 °F - 42.8 °F 67% 29.97 in 10.0 mi SW 4.6 mph - N/A   Clear
10:55 PM 53.6 °F - 42.8 °F 67% 29.96 in 10.0 mi SW 4.6 mph - N/A   Clear
11:15 PM 53.6 °F - 42.8 °F 67% 29.96 in 10.0 mi SW 5.8 mph - N/A   Clear
11:35 PM 53.6 °F - 41.0 °F 62% 29.96 in 10.0 mi West 5.8 mph - N/A   Clear
11:55 PM 55.4 °F - 41.0 °F 58% 29.96 in 10.0 mi West 5.8 mph - N/A   Clear